QPF
0.00 0.00 0.00 0.00 0.00 0.00 0.00 0.00 0.00 0.00 0.00 0.00 0.00 0.00 0.00 0.00 0.00 0.00 0.00 0.00 0.00 0.00 0.00 0.00 0.00 0.00 0.00 0.00 0.01 0.00 0.01 0.01 0.01 0.01 0.00 0.00 0.00 0.00 0.00 0.00 0.00 0.00 0.00 0.00 0.00 0.00 0.00 0.00 0.00
0.00 0.00 0.00 0.00 0.00 0.00 0.00 0.00 0.00 0.00 0.00 0.00 0.00 0.00 0.00 0.00 0.00 0.00 0.00 0.00 0.00 0.00 0.00 0.00 0.00 0.00 0.00 0.00 0.00 0.00 0.01 0.00 0.00 0.00 0.00 0.00 0.00 0.00 0.00 0.00 0.00 0.00 0.04 0.01 0.00 0.00 0.00 0.00 0.00
0.00 0.00 0.00 0.00 0.00 0.00 0.00 0.00 0.00 0.00 0.00 0.00 0.00 0.00 0.00 0.00 0.00 0.00 0.00 0.00 0.00 0.00 0.00 0.00 0.00 0.00 0.00 0.00 0.00 0.00 0.01 0.00 0.00 0.00 0.01 0.01 0.00 0.00 0.00 0.00 0.00 0.00 0.02 0.01 0.00 0.00 0.00 0.00 0.00
0.00 0.01 0.00 0.00 0.00 0.00 0.00 0.00 0.00 0.00 0.00 0.00 0.00 0.00 0.00 0.00 0.00 0.00 0.00 0.00 0.00 0.00 0.00 0.00 0.00 0.00 0.00 0.00 0.00 0.00 0.00 0.00 0.00 0.00 0.00 0.01 0.00 0.00 0.00 0.00 0.00 0.00 0.02 0.00 0.00 0.00 0.00 0.00 0.00
0.00 0.00 0.02 0.02 0.00 0.00 0.00 0.00 0.00 0.00 0.00 0.00 0.00 0.00 0.00 0.00 0.00 0.00 0.00 0.00 0.00 0.00 0.00 0.00 0.00 0.00 0.00 0.00 0.01 0.00 0.00 0.00 0.00 0.00 0.00 0.00 0.00 0.00 0.01 0.00 0.00 0.00 0.00 0.00 0.00 0.00 0.00 0.00 0.00
0.00 0.00 0.01 0.02 0.00 0.00 0.00 0.00 0.00 0.00 0.00 0.00 0.00 0.00 0.00 0.00 0.00 0.00 0.00 0.00 0.00 0.00 0.00 0.00 0.00 0.00 0.00 0.00 0.01 0.00 0.00 0.00 0.00 0.00 0.00 0.00 0.00 0.01 0.01 0.00 0.00 0.00 0.00 0.00 0.00 0.00 0.00 0.00 0.00
0.00 0.00 0.00 0.00 0.00 0.00 0.00 0.00 0.00 0.00 0.00 0.00 0.00 0.00 0.00 0.00 0.00 0.00 0.00 0.00 0.00 0.00 0.00 0.00 0.00 0.00 0.00 0.01 0.00 0.00 0.00 0.00 0.00 0.00 0.00 0.00 0.00 0.00 0.01 0.00 0.00 0.00 0.00 0.00 0.00 0.00 0.00 0.00 0.00
0.00 0.00 0.00 0.00 0.00 0.00 0.00 0.00 0.00 0.00 0.00 0.00 0.00 0.00 0.01 0.00 0.00 0.00 0.00 0.00 0.00 0.00 0.00 0.00 0.00 0.00 0.00 0.00 0.00 0.00 0.00 0.00 0.00 0.00 0.00 0.00 0.00 0.00 0.00 0.00 0.00 0.00 0.00 0.00 0.00 0.00 0.00 0.00 0.00
0.00 0.00 0.00 0.00 0.00 0.00 0.00 0.00 0.00 0.00 0.00 0.00 0.00 0.00 0.01 0.00 0.00 0.00 0.00 0.01 0.00 0.00 0.00 0.00 0.00 0.00 0.00 0.00 0.00 0.00 0.01 0.01 0.00 0.00 0.00 0.00 0.00 0.00 0.00 0.00 0.00 0.00 0.00 0.00 0.00 0.00 0.00 0.00 0.00
0.00 0.00 0.00 0.00 0.00 0.00 0.00 0.00 0.00 0.00 0.00 0.00 0.00 0.00 0.00 0.00 0.00 0.00 0.01 0.02 0.00 0.00 0.01 0.00 0.00 0.00 0.00 0.00 0.00 0.00 0.01 0.01 0.00 0.00 0.00 0.00 0.00 0.00 0.00 0.00 0.00 0.00 0.00 0.00 0.00 0.00 0.00 0.00 0.00
0.00 0.00 0.00 0.00 0.00 0.00 0.00 0.00 0.00 0.00 0.00 0.00 0.00 0.00 0.00 0.00 0.00 0.00 0.01 0.01 0.00 0.00 0.00 0.00 0.00 0.00 0.00 0.00 0.00 0.00 0.00 0.00 0.00 0.00 0.00 0.00 0.00 0.00 0.00 0.00 0.00 0.00 0.00 0.00 0.00 0.00 0.00 0.00 0.00
0.00 0.00 0.00 0.00 0.00 0.00 0.00 0.00 0.00 0.00 0.00 0.00 0.00 0.00 0.00 0.00 0.00 0.01 0.01 0.00 0.00 0.00 0.00 0.00 0.00 0.00 0.00 0.00 0.00 0.00 0.00 0.00 0.00 0.00 0.00 0.00 0.00 0.00 0.00 0.00 0.00 0.00 0.00 0.00 0.00 0.00 0.00 0.00 0.00
0.01 0.00 0.00 0.00 0.00 0.00 0.00 0.00 0.00 0.00 0.00 0.00 0.00 0.00 0.00 0.00 0.00 0.00 0.00 0.00 0.00 0.00 0.00 0.00 0.00 0.00 0.00 0.00 0.00 0.00 0.00 0.00 0.00 0.00 0.00 0.00 0.00 0.00 0.00 0.00 0.00 0.00 0.00 0.00 0.00 0.00 0.00 0.00 0.00
0.00 0.00 0.00 0.00 0.00 0.00 0.00 0.00 0.00 0.00 0.00 0.00 0.00 0.00 0.00 0.00 0.00 0.00 0.00 0.01 0.00 0.00 0.00 0.00 0.00 0.00 0.00 0.00 0.00 0.00 0.00 0.00 0.00 0.00 0.00 0.00 0.00 0.00 0.00 0.00 0.00 0.00 0.00 0.00 0.00 0.00 0.00 0.00 0.00
0.00 0.02 0.03 0.00 0.00 0.00 0.00 0.00 0.00 0.00 0.00 0.00 0.00 0.00 0.00 0.00 0.00 0.00 0.00 0.02 0.01 0.00 0.01 0.00 0.00 0.00 0.00 0.00 0.00 0.00 0.00 0.00 0.00 0.00 0.00 0.00 0.00 0.00 0.00 0.00 0.00 0.00 0.00 0.00 0.00 0.00 0.00 0.00 0.00
0.00 0.03 0.04 0.00 0.00 0.00 0.00 0.00 0.00 0.00 0.00 0.00 0.00 0.00 0.00 0.00 0.00 0.00 0.00 0.00 0.01 0.01 0.01 0.00 0.00 0.00 0.00 0.00 0.00 0.00 0.00 0.00 0.00 0.00 0.00 0.00 0.00 0.00 0.00 0.00 0.00 0.00 0.00 0.00 0.00 0.00 0.00 0.00 0.00
0.01 0.01 0.01 0.00 0.00 0.00 0.00 0.00 0.00 0.00 0.00 0.00 0.00 0.00 0.00 0.00 0.00 0.00 0.00 0.00 0.01 0.01 0.01 0.00 0.00 0.00 0.00 0.00 0.00 0.00 0.00 0.00 0.00 0.00 0.00 0.00 0.00 0.00 0.00 0.00 0.00 0.00 0.00 0.00 0.00 0.00 0.00 0.00 0.00
0.00 0.00 0.00 0.00 0.00 0.00 0.00 0.00 0.00 0.00 0.00 0.00 0.00 0.00 0.00 0.00 0.00 0.00 0.00 0.00 0.00 0.03 0.04 0.02 0.00 0.00 0.00 0.00 0.00 0.00 0.00 0.00 0.00 0.00 0.00 0.00 0.00 0.00 0.00 0.00 0.00 0.00 0.00 0.00 0.00 0.00 0.00 0.00 0.00
0.00 0.00 0.00 0.00 0.00 0.00 0.00 0.00 0.00 0.00 0.00 0.00 0.00 0.00 0.00 0.00 0.00 0.00 0.00 0.00 0.00 0.00 0.00 0.02 0.03 0.03 0.01 0.01 0.01 0.01 0.02 0.02 0.00 0.00 0.00 0.00 0.00 0.00 0.00 0.00 0.00 0.00 0.00 0.00 0.00 0.00 0.00 0.00 0.00
0.01 0.00 0.00 0.00 0.00 0.00 0.00 0.00 0.00 0.00 0.00 0.00 0.00 0.00 0.00 0.00 0.00 0.00 0.00 0.00 0.00 0.00 0.00 0.00 0.00 0.01 0.01 0.02 0.02 0.01 0.03 0.01 0.02 0.01 0.00 0.00 0.00 0.00 0.00 0.00 0.00 0.00 0.00 0.00 0.00 0.00 0.00 0.00 0.00
0.01 0.00 0.00 0.00 0.00 0.00 0.00 0.00 0.00 0.00 0.00 0.00 0.00 0.00 0.00 0.00 0.00 0.00 0.00 0.00 0.00 0.00 0.00 0.00 0.00 0.00 0.00 0.00 0.00 0.01 0.00 0.00 0.00 0.00 0.01 0.01 0.01 0.01 0.01 0.00 0.00 0.00 0.00 0.00 0.00 0.00 0.00 0.00 0.00
0.01 0.00 0.00 0.00 0.00 0.00 0.00 0.00 0.00 0.00 0.00 0.00 0.00 0.00 0.00 0.00 0.00 0.00 0.00 0.00 0.00 0.00 0.00 0.00 0.00 0.00 0.00 0.00 0.00 0.00 0.00 0.00 0.00 0.00 0.00 0.01 0.01 0.02 0.05 0.03 0.01 0.01 0.01 0.00 0.01 0.00 0.00 0.00 0.00
0.02 0.03 0.02 0.01 0.00 0.00 0.00 0.00 0.00 0.00 0.00 0.00 0.00 0.00 0.00 0.00 0.00 0.00 0.00 0.00 0.00 0.00 0.00 0.00 0.00 0.00 0.00 0.00 0.00 0.00 0.00 0.00 0.00 0.00 0.00 0.00 0.00 0.01 0.03 0.04 0.05 0.03 0.02 0.03 0.03 0.01 0.00 0.01 0.01
0.02 0.02 0.01 0.03 0.02 0.03 0.00 0.00 0.00 0.00 0.00 0.00 0.00 0.00 0.00 0.00 0.00 0.00 0.00 0.00 0.00 0.00 0.00 0.00 0.00 0.00 0.00 0.00 0.00 0.00 0.00 0.00 0.00 0.00 0.00 0.00 0.00 0.00 0.00 0.00 0.01 0.03 0.04 0.04 0.04 0.04 0.01 0.01 0.01
0.01 0.02 0.06 0.14 0.10 0.01 0.00 0.00 0.00 0.00 0.00 0.00 0.00 0.00 0.00 0.00 0.00 0.00 0.00 0.00 0.00 0.00 0.00 0.00 0.00 0.00 0.00 0.00 0.00 0.00 0.00 0.00 0.00 0.00 0.00 0.00 0.00 0.00 0.00 0.00 0.00 0.00 0.01 0.01 0.01 0.03 0.02 0.01 0.02
0.01 0.00 0.04 0.06 0.02 0.00 0.00 0.00 0.00 0.00 0.00 0.00 0.00 0.00 0.00 0.00 0.00 0.00 0.00 0.00 0.00 0.00 0.00 0.00 0.00 0.00 0.00 0.00 0.00 0.00 0.00 0.00 0.00 0.00 0.00 0.00 0.00 0.00 0.00 0.00 0.00 0.01 0.01 0.01 0.01 0.02 0.02 0.03 0.04
0.01 0.02 0.02 0.02 0.02 0.01 0.00 0.00 0.00 0.00 0.00 0.00 0.00 0.00 0.00 0.00 0.00 0.00 0.00 0.00 0.00 0.00 0.00 0.00 0.00 0.00 0.00 0.00 0.00 0.00 0.00 0.00 0.00 0.00 0.00 0.00 0.00 0.00 0.00 0.00 0.00 0.00 0.01 0.01 0.02 0.02 0.02 0.03 0.04
0.01 0.01 0.04 0.05 0.14 0.09 0.01 0.00 0.00 0.00 0.00 0.00 0.00 0.00 0.00 0.00 0.00 0.00 0.00 0.00 0.00 0.00 0.00 0.00 0.00 0.00 0.00 0.00 0.00 0.00 0.00 0.00 0.00 0.00 0.00 0.00 0.00 0.00 0.00 0.00 0.01 0.01 0.01 0.01 0.02 0.02 0.04 0.06 0.05
0.03 0.06 0.04 0.02 0.02 0.08 0.02 0.00 0.00 0.00 0.00 0.00 0.00 0.00 0.00 0.00 0.00 0.00 0.00 0.00 0.00 0.00 0.00 0.00 0.00 0.00 0.00 0.00 0.00 0.00 0.00 0.00 0.00 0.00 0.00 0.00 0.00 0.00 0.00 0.00 0.00 0.00 0.00 0.00 0.01 0.02 0.03 0.05 0.06
0.00 0.02 0.02 0.02 0.02 0.00 0.00 0.00 0.00 0.00 0.00 0.00 0.00 0.00 0.00 0.00 0.00 0.00 0.00 0.00 0.00 0.00 0.00 0.00 0.00 0.00 0.00 0.00 0.00 0.00 0.00 0.00 0.00 0.00 0.00 0.00 0.00 0.00 0.00 0.00 0.00 0.00 0.00 0.00 0.00 0.00 0.00 0.01 0.02
MSLP
1012.64 1012.46 1011.97 1011.82 1012.31 1011.02 1010.01 1008.67 1006.97 1005.97 1005.74 1005.54 1005.70 1005.71 1005.99 1005.77 1006.13 1008.01 1008.01 1008.21 1008.83 1010.12 1011.16 1011.79 1012.24 1012.70 1013.21 1013.64 1014.10 1014.52 1014.88 1015.27 1015.56 1015.80 1016.14 1016.45 1016.77 1017.01 1017.23 1017.38 1017.58 1017.82 1018.02 1018.09 1018.62 1018.74 1018.87 1019.07 1019.19
1012.62 1012.44 1012.02 1012.23 1011.71 1010.64 1009.37 1008.15 1006.77 1005.97 1005.99 1006.05 1006.31 1006.31 1006.36 1006.08 1006.43 1007.80 1008.27 1008.51 1009.02 1010.09 1011.20 1011.82 1012.32 1012.80 1013.30 1013.83 1014.28 1014.68 1015.10 1015.44 1015.74 1015.97 1016.27 1016.64 1016.89 1017.22 1017.46 1017.61 1017.74 1018.02 1018.12 1018.44 1018.88 1019.04 1019.18 1019.44 1019.50
1012.64 1012.21 1012.67 1012.61 1011.30 1010.21 1008.91 1007.29 1006.45 1005.64 1005.95 1006.40 1006.51 1006.35 1006.29 1006.57 1006.69 1007.57 1008.10 1008.40 1009.10 1010.20 1010.97 1011.83 1012.37 1012.90 1013.43 1013.93 1014.38 1014.83 1015.19 1015.53 1015.91 1016.19 1016.49 1016.77 1017.11 1017.37 1017.55 1017.79 1018.07 1018.33 1018.39 1018.81 1019.09 1019.26 1019.50 1019.68 1019.71
1012.61 1013.11 1012.98 1011.97 1010.71 1010.02 1008.67 1006.84 1005.95 1005.66 1005.93 1006.50 1006.57 1006.36 1006.32 1006.88 1006.92 1007.49 1008.20 1008.37 1009.15 1010.13 1010.95 1012.01 1012.48 1013.00 1013.57 1014.09 1014.54 1014.94 1015.39 1015.81 1016.18 1016.44 1016.73 1017.00 1017.22 1017.52 1017.58 1017.99 1018.39 1018.47 1018.68 1019.07 1019.33 1019.61 1019.82 1019.93 1020.07
1012.32 1012.57 1013.07 1011.94 1010.74 1009.51 1008.15 1006.66 1006.37 1005.69 1006.00 1006.46 1006.81 1006.62 1006.89 1007.37 1007.55 1007.94 1008.25 1008.49 1009.24 1010.33 1011.22 1012.13 1012.61 1013.15 1013.73 1014.26 1014.65 1015.10 1015.55 1016.05 1016.40 1016.70 1016.92 1017.14 1017.43 1017.43 1017.62 1018.26 1018.49 1018.74 1019.02 1019.27 1019.60 1019.84 1020.03 1020.21 1020.33
1012.29 1011.89 1011.83 1011.65 1010.92 1008.94 1007.42 1006.36 1006.12 1006.28 1006.14 1006.39 1006.75 1006.78 1007.55 1007.56 1007.84 1008.24 1008.29 1008.75 1009.66 1010.63 1011.44 1012.22 1012.89 1013.35 1013.83 1014.28 1014.71 1015.23 1015.68 1016.09 1016.46 1016.82 1017.13 1017.40 1017.63 1017.67 1017.98 1018.34 1018.60 1018.92 1019.24 1019.53 1019.85 1020.01 1020.24 1020.40 1020.55
1011.92 1011.68 1010.92 1010.40 1010.25 1008.41 1007.16 1006.13 1005.95 1006.18 1006.10 1006.04 1006.36 1006.74 1007.57 1007.74 1008.00 1008.29 1008.47 1008.77 1009.66 1010.59 1011.60 1012.27 1012.98 1013.47 1013.95 1014.43 1014.85 1015.27 1015.70 1016.12 1016.55 1016.97 1017.30 1017.49 1017.80 1017.89 1018.12 1018.52 1018.79 1019.07 1019.42 1019.73 1019.98 1020.16 1020.37 1020.57 1020.71
1011.81 1012.04 1011.19 1010.15 1008.99 1007.49 1006.68 1006.50 1005.96 1005.96 1005.98 1005.88 1006.14 1006.84 1007.60 1007.89 1008.12 1008.36 1008.59 1009.09 1010.09 1010.88 1011.49 1012.16 1012.95 1013.54 1014.05 1014.55 1014.93 1015.24 1015.66 1016.11 1016.51 1017.03 1017.42 1017.70 1017.90 1018.17 1018.43 1018.79 1019.07 1019.31 1019.60 1019.87 1020.10 1020.28 1020.48 1020.69 1020.87
1011.69 1011.85 1010.88 1009.64 1008.73 1007.66 1006.66 1006.13 1006.00 1005.89 1006.25 1006.25 1006.41 1006.92 1008.20 1008.55 1008.71 1008.82 1009.10 1009.64 1010.00 1010.87 1011.40 1011.97 1012.67 1013.27 1013.83 1014.45 1015.01 1015.36 1015.63 1016.10 1016.55 1016.97 1017.41 1017.72 1018.00 1018.34 1018.66 1018.85 1019.17 1019.45 1019.68 1019.94 1020.16 1020.34 1020.55 1020.78 1020.93
1011.15 1011.05 1009.96 1009.25 1008.69 1008.13 1007.15 1006.62 1006.51 1006.45 1006.86 1007.02 1007.12 1007.07 1008.16 1009.01 1009.61 1009.55 1009.69 1010.28 1010.51 1011.00 1011.51 1012.00 1012.41 1012.75 1013.27 1013.77 1014.77 1015.34 1015.65 1016.19 1016.58 1016.98 1017.27 1017.57 1017.77 1018.14 1018.41 1018.83 1019.10 1019.39 1019.64 1019.93 1020.18 1020.40 1020.58 1020.79 1020.94
1010.71 1010.12 1009.74 1009.24 1008.83 1008.68 1008.07 1007.69 1007.16 1006.92 1007.42 1007.50 1007.30 1007.40 1008.10 1009.01 1009.79 1010.27 1010.39 1010.99 1011.27 1011.11 1011.31 1011.87 1012.11 1012.12 1012.66 1013.35 1014.29 1014.88 1015.50 1015.98 1016.35 1016.71 1017.05 1017.03 1017.36 1017.85 1018.40 1018.93 1019.19 1019.49 1019.69 1019.97 1020.18 1020.48 1020.62 1020.66 1020.76
1010.49 1009.78 1009.97 1009.27 1009.02 1009.13 1008.88 1008.61 1008.04 1007.67 1007.88 1007.63 1007.36 1006.97 1007.59 1008.67 1009.68 1010.29 1010.98 1011.43 1011.64 1011.39 1011.49 1011.58 1011.70 1011.99 1012.41 1013.13 1013.83 1014.35 1014.82 1015.25 1015.66 1016.20 1016.55 1016.68 1017.05 1017.56 1018.04 1018.58 1019.02 1019.30 1019.55 1019.82 1020.05 1020.36 1020.35 1020.26 1020.27
1010.22 1009.74 1009.87 1009.51 1009.46 1009.68 1009.44 1009.29 1008.88 1008.36 1008.03 1007.79 1007.64 1007.26 1007.56 1008.21 1009.01 1009.84 1010.54 1011.10 1011.57 1011.58 1011.55 1011.54 1011.75 1011.97 1012.46 1013.18 1013.60 1013.95 1014.28 1014.60 1014.91 1015.63 1015.99 1016.20 1016.63 1017.33 1017.78 1018.09 1018.45 1018.77 1019.07 1019.36 1019.61 1019.76 1019.73 1019.87 1019.90
1009.72 1010.23 1009.78 1009.71 1009.49 1009.80 1009.95 1009.81 1009.48 1008.88 1008.37 1008.12 1008.07 1007.98 1007.97 1008.24 1008.54 1009.34 1010.24 1010.72 1011.19 1011.49 1011.66 1011.84 1012.13 1012.20 1012.24 1013.02 1013.63 1013.84 1014.09 1014.38 1014.69 1015.06 1015.54 1015.74 1016.24 1016.88 1017.32 1017.63 1018.00 1018.19 1018.51 1018.75 1019.02 1019.24 1019.36 1019.49 1019.75
1009.92 1010.15 1010.11 1009.96 1009.89 1009.79 1010.21 1010.43 1009.33 1009.03 1008.73 1008.54 1008.25 1008.25 1008.20 1008.29 1008.50 1008.94 1009.73 1010.35 1010.37 1010.79 1011.50 1011.98 1012.35 1012.47 1012.65 1012.81 1013.26 1013.59 1013.89 1014.21 1014.62 1014.88 1015.15 1015.57 1015.94 1016.47 1016.91 1017.27 1017.57 1017.84 1018.04 1018.31 1018.57 1018.83 1019.08 1019.49 1019.59
1009.99 1010.49 1010.45 1010.02 1010.35 1010.15 1010.24 1009.75 1009.62 1009.65 1009.34 1008.90 1008.24 1008.37 1008.26 1008.34 1008.70 1008.96 1009.24 1009.85 1010.17 1010.45 1010.91 1011.59 1012.32 1012.77 1012.84 1012.96 1013.10 1013.19 1013.61 1014.01 1014.48 1014.79 1015.04 1015.36 1015.75 1016.21 1016.74 1017.11 1017.37 1017.51 1017.80 1018.12 1018.47 1018.87 1019.24 1019.57 1019.79
1010.19 1010.38 1010.32 1010.39 1009.68 1010.00 1009.86 1009.10 1009.66 1009.37 1009.27 1009.00 1008.45 1008.31 1008.26 1008.10 1008.31 1008.68 1008.90 1009.34 1009.76 1010.18 1010.62 1011.26 1011.81 1012.59 1013.05 1013.20 1013.17 1012.96 1013.29 1013.81 1014.25 1014.54 1014.77 1015.06 1015.50 1015.92 1016.42 1016.91 1017.15 1017.24 1017.67 1017.96 1018.38 1018.69 1019.02 1019.58 1019.94
1009.10 1009.12 1009.28 1009.25 1009.01 1009.58 1009.45 1009.26 1009.26 1008.93 1008.85 1008.84 1008.61 1008.41 1008.26 1007.95 1007.96 1008.21 1008.64 1008.91 1009.37 1009.86 1010.10 1010.57 1011.18 1011.98 1012.85 1013.38 1013.53 1013.53 1013.55 1013.61 1013.79 1014.17 1014.48 1014.73 1015.09 1015.56 1016.07 1016.48 1016.78 1017.01 1017.53 1017.79 1018.08 1018.49 1018.84 1019.16 1019.78
1009.58 1009.57 1009.33 1009.05 1008.73 1008.99 1009.04 1009.28 1009.15 1009.01 1008.65 1008.61 1008.39 1008.21 1008.09 1007.86 1007.59 1007.81 1008.26 1008.61 1009.15 1009.57 1010.11 1010.65 1010.93 1011.34 1012.04 1012.86 1013.63 1013.88 1013.85 1013.99 1013.87 1013.69 1013.91 1014.21 1014.55 1014.87 1015.31 1015.63 1016.07 1016.43 1016.95 1017.33 1017.70 1018.16 1018.76 1019.13 1019.31
1009.88 1008.93 1008.46 1008.22 1008.00 1008.32 1008.68 1008.62 1008.61 1008.75 1008.44 1008.45 1008.34 1008.16 1007.80 1007.70 1007.62 1007.76 1008.12 1008.51 1009.02 1009.45 1009.92 1010.36 1010.72 1011.03 1011.37 1012.13 1012.79 1013.29 1013.84 1014.02 1013.99 1014.04 1013.94 1013.76 1013.93 1014.34 1014.74 1015.19 1015.62 1015.95 1016.41 1016.91 1017.27 1017.69 1018.43 1018.77 1018.95
1009.54 1008.27 1007.80 1007.63 1007.55 1007.84 1008.48 1008.50 1008.14 1007.70 1007.88 1008.02 1008.13 1008.04 1007.77 1007.61 1007.87 1008.08 1008.41 1008.71 1009.15 1009.72 1010.11 1010.47 1010.56 1010.65 1010.79 1011.40 1012.28 1012.85 1013.39 1013.93 1014.24 1014.14 1014.00 1013.81 1013.71 1013.84 1014.15 1014.58 1015.12 1015.57 1015.85 1016.23 1016.60 1016.99 1017.48 1018.18 1018.55
1009.51 1008.45 1007.83 1007.81 1008.08 1008.48 1008.80 1008.48 1007.96 1007.26 1007.10 1007.34 1007.57 1007.87 1007.94 1008.02 1008.18 1008.65 1009.13 1009.59 1009.90 1010.24 1010.44 1010.88 1010.99 1010.83 1010.92 1011.09 1011.91 1012.41 1012.81 1013.28 1013.36 1013.49 1013.65 1013.69 1013.61 1013.80 1013.97 1014.10 1014.36 1014.89 1015.37 1015.75 1015.99 1016.32 1016.79 1017.48 1018.14
1009.07 1008.49 1008.84 1008.46 1008.93 1009.28 1009.17 1009.49 1007.01 1006.52 1006.78 1006.70 1007.08 1007.64 1008.05 1008.33 1008.62 1009.21 1009.84 1010.31 1010.72 1010.92 1011.19 1011.50 1011.52 1011.53 1011.43 1011.50 1011.59 1012.10 1012.40 1012.41 1012.41 1012.77 1013.05 1013.21 1013.40 1013.50 1013.90 1013.89 1014.03 1014.49 1014.81 1015.19 1015.58 1015.88 1016.23 1016.63 1017.35
1009.40 1009.91 1010.54 1010.13 1010.52 1010.17 1009.19 1009.05 1007.03 1005.97 1005.39 1006.47 1007.11 1007.71 1008.10 1008.70 1009.30 1009.94 1010.53 1011.08 1011.47 1011.64 1011.88 1012.06 1012.04 1011.96 1011.82 1011.83 1011.91 1012.16 1012.29 1012.32 1012.36 1012.47 1012.61 1012.72 1013.02 1013.24 1013.42 1013.51 1013.96 1014.08 1014.45 1014.76 1015.06 1015.27 1015.50 1015.82 1016.32
1009.78 1010.43 1011.66 1012.05 1011.55 1009.72 1008.84 1009.03 1006.90 1005.57 1005.38 1005.99 1007.15 1007.98 1008.67 1009.31 1009.92 1010.69 1011.36 1011.84 1012.22 1012.52 1012.58 1012.51 1012.43 1012.42 1012.38 1012.39 1012.37 1012.34 1012.42 1012.50 1012.54 1012.52 1012.44 1012.49 1012.74 1012.90 1013.13 1013.31 1013.59 1013.88 1014.15 1014.41 1014.76 1014.98 1015.13 1015.36 1015.64
1010.27 1010.42 1010.71 1010.91 1010.83 1009.72 1009.00 1007.98 1006.84 1006.18 1005.84 1006.51 1007.68 1008.57 1009.32 1009.92 1010.22 1010.78 1011.42 1012.01 1012.43 1012.72 1012.81 1012.83 1012.88 1012.95 1012.97 1012.93 1012.94 1012.77 1012.65 1012.63 1012.61 1012.51 1012.41 1012.37 1012.34 1012.41 1012.62 1013.09 1013.53 1013.85 1013.97 1014.19 1014.47 1014.76 1014.95 1015.17 1015.59
1010.84 1011.12 1011.12 1011.14 1010.91 1009.78 1008.86 1007.92 1007.44 1007.01 1007.16 1007.57 1008.48 1009.32 1009.75 1010.03 1010.47 1010.95 1011.47 1011.97 1012.36 1012.80 1013.01 1013.08 1013.16 1013.26 1013.30 1013.32 1013.26 1013.18 1013.00 1012.92 1012.89 1012.60 1012.52 1012.53 1012.39 1012.71 1012.89 1013.22 1013.50 1013.68 1013.93 1014.19 1014.53 1014.71 1014.91 1015.17 1015.52
1010.37 1011.22 1011.55 1011.93 1011.39 1010.24 1008.58 1007.72 1006.92 1007.46 1007.78 1008.22 1008.96 1009.51 1009.79 1010.15 1010.59 1011.05 1011.57 1012.07 1012.45 1012.77 1013.09 1013.25 1013.39 1013.55 1013.65 1013.74 1013.73 1013.45 1013.26 1013.04 1012.96 1012.87 1012.84 1012.94 1012.97 1012.95 1013.17 1013.66 1013.82 1013.90 1014.09 1014.37 1014.68 1015.03 1015.32 1015.73 1016.36
1010.92 1011.04 1011.36 1011.68 1011.27 1009.95 1009.08 1007.72 1006.27 1006.57 1007.31 1008.11 1008.86 1009.32 1009.67 1010.15 1010.59 1011.14 1011.70 1012.21 1012.60 1012.97 1013.36 1013.56 1013.67 1013.76 1013.98 1014.13 1014.09 1013.93 1013.71 1013.53 1013.45 1013.49 1013.29 1013.31 1013.37 1013.44 1013.65 1014.00 1014.26 1014.42 1014.65 1014.94 1015.27 1015.72 1016.15 1016.62 1017.25
1009.46 1010.10 1010.37 1010.96 1010.85 1010.22 1009.52 1008.19 1006.97 1006.88 1007.43 1007.96 1008.64 1009.16 1009.60 1010.02 1010.56 1011.22 1011.82 1012.34 1012.83 1013.31 1013.60 1013.81 1013.97 1014.13 1014.35 1014.37 1014.29 1014.28 1014.21 1014.04 1014.08 1013.99 1013.71 1013.67 1013.73 1013.94 1014.22 1014.54 1014.85 1015.12 1015.41 1015.65 1015.95 1016.34 1016.88 1017.46 1018.14
Thickness
5663 5671 5680 5680 5653 5667 5674 5695 5728 5733 5739 5759 5761 5762 5753 5763 5757 5730 5781 5787 5787 5777 5769 5766 5764 5762 5758 5757 5754 5751 5750 5747 5746 5745 5742 5740 5738 5737 5736 5736 5734 5732 5731 5731 5725 5724 5723 5721 5720
5653 5662 5668 5656 5644 5647 5674 5708 5713 5732 5737 5750 5755 5755 5753 5753 5769 5766 5770 5784 5784 5775 5768 5764 5762 5759 5756 5753 5751 5748 5745 5743 5743 5741 5740 5737 5736 5734 5732 5732 5730 5727 5729 5726 5721 5720 5719 5716 5715
5646 5655 5643 5638 5645 5648 5674 5709 5721 5736 5738 5743 5743 5757 5754 5745 5770 5770 5777 5782 5780 5772 5767 5762 5759 5757 5753 5750 5747 5744 5742 5741 5739 5737 5735 5734 5732 5730 5729 5728 5725 5722 5724 5720 5717 5715 5714 5712 5711
5634 5631 5637 5629 5643 5667 5686 5708 5728 5726 5734 5741 5741 5739 5757 5766 5773 5777 5775 5779 5776 5769 5764 5757 5755 5753 5749 5746 5743 5741 5739 5736 5734 5733 5731 5730 5729 5726 5727 5723 5720 5720 5719 5714 5712 5710 5707 5706 5705
5627 5622 5608 5618 5641 5673 5695 5714 5714 5716 5724 5729 5736 5726 5736 5756 5768 5770 5771 5774 5770 5765 5757 5752 5751 5748 5745 5742 5740 5737 5735 5732 5730 5728 5727 5726 5724 5725 5724 5719 5717 5715 5712 5710 5707 5704 5702 5701 5699
5608 5621 5612 5610 5630 5673 5695 5713 5712 5708 5718 5725 5728 5723 5727 5755 5757 5761 5768 5768 5764 5760 5753 5748 5745 5742 5741 5739 5737 5734 5730 5729 5727 5725 5723 5721 5720 5720 5718 5715 5713 5710 5707 5704 5701 5700 5697 5696 5694
5605 5609 5618 5635 5635 5662 5682 5708 5699 5700 5708 5713 5735 5716 5725 5741 5752 5757 5761 5765 5761 5755 5748 5745 5740 5738 5736 5734 5733 5731 5728 5725 5723 5721 5719 5718 5716 5715 5714 5711 5708 5706 5703 5700 5697 5695 5693 5691 5690
5607 5600 5606 5624 5639 5658 5683 5688 5702 5700 5702 5731 5731 5711 5711 5733 5747 5751 5755 5754 5753 5748 5746 5742 5737 5734 5732 5730 5728 5728 5727 5724 5721 5717 5715 5713 5712 5711 5708 5706 5703 5700 5698 5695 5693 5691 5689 5687 5685
5605 5584 5593 5622 5640 5660 5681 5679 5697 5707 5701 5710 5720 5722 5715 5731 5738 5740 5742 5741 5745 5743 5741 5739 5736 5732 5729 5727 5725 5724 5723 5722 5719 5715 5712 5711 5709 5707 5704 5701 5699 5696 5694 5692 5689 5688 5686 5684 5682
5588 5587 5612 5642 5651 5651 5661 5668 5678 5681 5684 5690 5700 5713 5713 5722 5720 5724 5727 5724 5731 5735 5733 5735 5734 5733 5731 5729 5723 5720 5719 5716 5715 5713 5711 5709 5707 5704 5702 5699 5696 5693 5691 5689 5686 5685 5684 5681 5680
5593 5595 5625 5634 5642 5635 5640 5651 5669 5671 5667 5684 5690 5703 5707 5713 5712 5713 5719 5717 5719 5728 5732 5732 5733 5735 5733 5730 5723 5719 5716 5714 5712 5711 5709 5709 5707 5704 5700 5696 5693 5690 5688 5686 5684 5681 5680 5679 5677
5582 5609 5608 5623 5626 5626 5628 5641 5652 5663 5669 5689 5694 5707 5707 5708 5704 5706 5707 5710 5712 5719 5727 5731 5734 5733 5730 5727 5722 5719 5717 5715 5713 5709 5708 5709 5708 5703 5700 5695 5691 5689 5687 5684 5682 5679 5679 5679 5677
5580 5600 5602 5611 5611 5615 5625 5627 5638 5651 5667 5681 5685 5696 5697 5701 5702 5705 5707 5709 5710 5712 5721 5725 5728 5729 5727 5723 5720 5719 5718 5717 5715 5710 5708 5709 5707 5701 5698 5696 5692 5689 5686 5684 5682 5680 5679 5678 5677
5588 5584 5593 5598 5600 5608 5610 5617 5632 5650 5663 5667 5677 5685 5693 5703 5705 5703 5702 5704 5707 5710 5713 5717 5718 5721 5722 5719 5715 5715 5713 5713 5712 5710 5709 5707 5705 5700 5697 5694 5691 5689 5686 5684 5682 5680 5679 5677 5674
5576 5571 5580 5586 5593 5597 5605 5600 5627 5646 5650 5654 5666 5675 5682 5693 5698 5701 5701 5701 5709 5711 5710 5710 5710 5713 5714 5715 5712 5710 5710 5709 5708 5708 5706 5704 5701 5698 5694 5691 5690 5686 5685 5682 5681 5678 5676 5673 5671
5562 5559 5553 5579 5582 5589 5596 5601 5625 5631 5633 5640 5659 5666 5672 5683 5689 5697 5700 5700 5705 5708 5710 5708 5707 5705 5706 5707 5708 5708 5706 5705 5703 5703 5702 5699 5697 5694 5690 5688 5686 5683 5681 5679 5676 5673 5670 5667 5665
5550 5542 5554 5565 5590 5590 5597 5609 5614 5628 5629 5635 5651 5661 5668 5677 5684 5691 5697 5700 5701 5704 5704 5705 5704 5700 5698 5699 5701 5704 5703 5701 5699 5698 5698 5696 5693 5690 5688 5684 5682 5681 5678 5675 5671 5668 5666 5660 5658
5556 5563 5569 5572 5590 5587 5591 5600 5610 5623 5630 5632 5643 5652 5658 5670 5680 5688 5693 5698 5699 5700 5702 5703 5704 5699 5694 5691 5693 5695 5697 5698 5696 5695 5693 5692 5691 5687 5684 5681 5679 5677 5673 5670 5667 5663 5661 5658 5652
5559 5556 5561 5572 5586 5581 5585 5591 5603 5613 5622 5625 5637 5646 5655 5664 5679 5686 5689 5693 5695 5697 5695 5697 5697 5697 5694 5689 5684 5685 5686 5687 5691 5692 5692 5690 5687 5685 5683 5681 5678 5674 5670 5666 5664 5659 5653 5650 5648
5545 5558 5566 5578 5587 5581 5583 5590 5602 5604 5616 5623 5630 5640 5649 5660 5669 5678 5683 5687 5688 5690 5692 5691 5691 5693 5693 5690 5686 5685 5681 5681 5683 5685 5686 5686 5685 5682 5680 5677 5673 5671 5667 5662 5658 5654 5647 5644 5641
5541 5560 5572 5576 5587 5590 5584 5578 5592 5614 5617 5621 5627 5637 5645 5654 5661 5667 5671 5679 5682 5682 5684 5684 5686 5688 5691 5689 5685 5682 5680 5677 5674 5676 5677 5679 5680 5679 5677 5673 5669 5666 5663 5659 5655 5651 5646 5639 5635
5530 5565 5573 5578 5568 5554 5574 5554 5583 5607 5613 5620 5628 5631 5637 5644 5655 5659 5660 5665 5669 5672 5675 5675 5677 5681 5684 5685 5680 5680 5676 5673 5676 5674 5673 5673 5672 5671 5670 5668 5666 5663 5658 5653 5651 5647 5642 5635 5629
5545 5560 5556 5569 5562 5561 5565 5547 5588 5604 5600 5616 5625 5629 5633 5638 5645 5645 5645 5651 5654 5657 5659 5660 5663 5667 5671 5673 5674 5672 5675 5677 5676 5673 5671 5669 5666 5663 5660 5661 5660 5657 5653 5649 5645 5641 5636 5632 5626
5545 5540 5535 5542 5544 5535 5560 5557 5577 5595 5619 5614 5619 5623 5627 5631 5629 5633 5637 5638 5641 5645 5647 5650 5653 5656 5661 5664 5665 5664 5664 5667 5669 5669 5666 5664 5662 5658 5656 5653 5649 5649 5646 5643 5639 5636 5633 5630 5625
5532 5529 5525 5528 5530 5534 5567 5558 5578 5601 5615 5614 5610 5612 5617 5618 5620 5620 5621 5624 5627 5630 5634 5638 5642 5645 5649 5651 5654 5656 5657 5657 5656 5657 5659 5658 5653 5653 5652 5648 5644 5641 5637 5634 5630 5627 5625 5622 5619
5523 5531 5528 5531 5539 5546 5566 5560 5573 5594 5603 5605 5603 5603 5606 5608 5613 5615 5616 5616 5618 5621 5624 5627 5631 5633 5637 5639 5641 5644 5646 5647 5647 5647 5649 5650 5650 5648 5647 5642 5638 5633 5630 5626 5622 5618 5614 5610 5605
5508 5515 5529 5525 5546 5550 5552 5568 5571 5581 5583 5589 5590 5592 5595 5602 5605 5607 5610 5610 5612 5612 5614 5617 5621 5623 5626 5628 5630 5632 5634 5636 5636 5638 5638 5638 5640 5638 5635 5632 5628 5625 5622 5618 5612 5608 5603 5597 5591
5527 5523 5521 5519 5535 5546 5550 5563 5566 5562 5569 5579 5580 5583 5590 5596 5599 5601 5602 5602 5604 5605 5605 5608 5611 5612 5614 5615 5616 5621 5624 5626 5626 5627 5626 5626 5626 5626 5622 5619 5617 5614 5610 5606 5600 5593 5585 5576 5567
5517 5516 5521 5528 5532 5539 5543 5559 5581 5573 5576 5576 5577 5582 5586 5590 5592 5593 5593 5593 5595 5595 5594 5596 5599 5602 5602 5602 5605 5607 5611 5612 5613 5613 5615 5615 5614 5613 5611 5607 5604 5601 5596 5590 5582 5573 5564 5555 5545
5537 5531 5535 5532 5532 5533 5533 5541 5571 5573 5574 5574 5575 5579 5581 5584 5585 5585 5584 5584 5584 5583 5583 5585 5587 5589 5589 5591 5594 5596 5598 5600 5600 5601 5604 5605 5604 5602 5598 5594 5589 5585 5579 5573 5565 5555 5544 5533 5523